| time (UTC) | temp F | wind direction | speed MPH | gust MPH | rain 1hr in | rain 24hr in | rain mn in | humidity % | barometer mb |
| 20260902203152 | 140 | 92 | 1.0 | 5.0 | 0.00 | 0.00 | 0.00 | 1011.2 | |
| 20260902202647 | 140 | 51 | 0.0 | 1.0 | 0.00 | 0.00 | 0.00 | 1011.0 | |
| 20260902202143 | 140 | 43 | 0.0 | 0.0 | 0.00 | 0.00 | 0.00 | 1010.8 | |
| 20260902201639 | 140 | 66 | 6.0 | 8.0 | 0.00 | 0.00 | 0.00 | 1011.3 | |
| 20260902201138 | 140 | 153 | 0.0 | 0.0 | 0.00 | 0.00 | 0.00 | 1011.3 | |
| 20260902200633 | 140 | 31 | 4.0 | 6.0 | 0.00 | 0.00 | 0.00 | 1011.5 | |
| 20260902200130 | 140 | 141 | 0.0 | 0.0 | 0.00 | 0.00 | 0.00 | 1011.4 | |
| 20260902195625 | 140 | 77 | 3.0 | 8.0 | 0.00 | 0.00 | 0.00 | 1011.5 | |
| 20260902195124 | 140 | 82 | 4.0 | 8.0 | 0.00 | 0.00 | 0.00 | 1011.5 | |
| 20260902194618 | 140 | 199 | 0.0 | 0.0 | 0.00 | 0.00 | 0.00 | 1011.7 | |
| 20260902194113 | 140 | 58 | 0.0 | 0.0 | 0.00 | 0.00 | 0.00 | 1012.0 | |
| 20260902193609 | 140 | 62 | 5.0 | 6.0 | 0.00 | 0.00 | 0.00 | 1011.7 | |
| 20260902193109 | 140 | 31 | 1.0 | 2.0 | 0.00 | 0.00 | 0.00 | 1011.9 | |
| 20260902192607 | 140 | 59 | 5.0 | 13.0 | 0.00 | 0.00 | 0.00 | 1011.9 | |
| 20260902192106 | 140 | 87 | 5.0 | 10.0 | 0.00 | 0.00 | 0.00 | 1012.0 | |
| 20260902191601 | 140 | 87 | 1.0 | 5.0 | 0.00 | 0.00 | 0.00 | 1012.2 | |
| 20260902191056 | 140 | 55 | 4.0 | 8.0 | 0.00 | 0.00 | 0.00 | 1012.3 | |
| 20260902190551 | 140 | 63 | 7.0 | 13.0 | 0.00 | 0.00 | 0.00 | 1012.5 | |
| 20260902190047 | 140 | 293 | 0.0 | 0.0 | 0.00 | 0.00 | 0.00 | 1012.5 | |
| 20260902185543 | 140 | 38 | 0.0 | 0.0 | 0.00 | 0.00 | 0.00 | 1012.4 | |
| 20260902185038 | 140 | 104 | 5.0 | 8.0 | 0.00 | 0.00 | 0.00 | 1012.7 | |
| 20260902184533 | 140 | 57 | 0.0 | 0.0 | 0.00 | 0.00 | 0.00 | 1012.7 | |
| 20260902184028 | 140 | 125 | 0.0 | 0.0 | 0.00 | 0.00 | 0.00 | 1012.8 | |
| 20260902183525 | 140 | 78 | 4.0 | 6.0 | 0.00 | 0.00 | 0.00 | 1012.9 | |
| 20260902183021 | 140 | 137 | 7.0 | 8.0 | 0.00 | 0.00 | 0.00 | 1013.1 | |
| 20260902182517 | 140 | 136 | 5.0 | 6.0 | 0.00 | 0.00 | 0.00 | 1012.9 | |
| 20260902182013 | 140 | 81 | 9.0 | 10.0 | 0.00 | 0.00 | 0.00 | 1013.1 | |
| 20260902181508 | 140 | 63 | 4.0 | 7.0 | 0.00 | 0.00 | 0.00 | 1013.0 | |
| 20260902181002 | 140 | 5 | 1.0 | 5.0 | 0.00 | 0.00 | 0.00 | 1013.5 | |
| 20260902180503 | 140 | 83 | 2.0 | 3.0 | 0.00 | 0.00 | 0.00 | 1013.3 | |
| 20260902175959 | 140 | 33 | 0.0 | 2.0 | 0.00 | 0.00 | 0.00 | 1013.6 | |
| 20260902175459 | 140 | 30 | 0.0 | 0.0 | 0.00 | 0.00 | 0.00 | 1013.5 | |
| 20260902174954 | 140 | 97 | 7.0 | 8.0 | 0.00 | 0.00 | 0.00 | 1013.6 | |
| 20260902174451 | 140 | 153 | 0.0 | 0.0 | 0.00 | 0.00 | 0.00 | 1013.8 | |
| 20260902173946 | 140 | 103 | 0.0 | 0.0 | 0.00 | 0.00 | 0.00 | 1013.8 | |
| 20260902173445 | 140 | 89 | 7.0 | 9.0 | 0.00 | 0.00 | 0.00 | 1014.0 | |
| 20260902172941 | 140 | 41 | 5.0 | 6.0 | 0.00 | 0.00 | 0.00 | 1013.9 | |
| 20260902172440 | 140 | 98 | 0.0 | 0.0 | 0.00 | 0.00 | 0.00 | 1014.0 | |
| 20260902171935 | 140 | 167 | 0.0 | 0.0 | 0.00 | 0.00 | 0.00 | 1014.2 | |
| 20260902171431 | 140 | 163 | 6.0 | 8.0 | 0.00 | 0.00 | 0.00 | 1014.4 | |
| 20260902170927 | 140 | 104 | 3.0 | 6.0 | 0.00 | 0.00 | 0.00 | 1014.1 | |
| 20260902170422 | 140 | 167 | 5.0 | 6.0 | 0.00 | 0.00 | 0.00 | 1014.4 | |
| 20260902165917 | 140 | 70 | 4.0 | 7.0 | 0.00 | 0.00 | 0.00 | 1014.5 | |
| 20260902165417 | 140 | 239 | 0.0 | 0.0 | 0.00 | 0.00 | 0.00 | 1014.4 | |
| 20260902164911 | 140 | 64 | 0.0 | 1.0 | 0.00 | 0.00 | 0.00 | 1014.2 | |
| 20260902164406 | 140 | 105 | 0.0 | 0.0 | 0.00 | 0.00 | 0.00 | 1014.6 | |
| 20260902163906 | 140 | 199 | 0.0 | 0.0 | 0.00 | 0.00 | 0.00 | 1014.6 | |
| 20260902163401 | 140 | 214 | 3.0 | 3.0 | 0.00 | 0.00 | 0.00 | 1014.7 | |
| 20260902162859 | 140 | 132 | 3.0 | 3.0 | 0.00 | 0.00 | 0.00 | 1014.5 | |
| 20260902162354 | 140 | 150 | 2.0 | 3.0 | 0.00 | 0.00 | 0.00 | 1014.9 | |
| 20260902161854 | 140 | 113 | 0.0 | 0.0 | 0.00 | 0.00 | 0.00 | 1014.9 | |
| 20260902161349 | 140 | 166 | 0.0 | 0.0 | 0.00 | 0.00 | 0.00 | 1014.9 | |
| 20260902160845 | 140 | 179 | 0.0 | 0.0 | 0.00 | 0.00 | 0.00 | 1014.9 | |
| 20260902160341 | 140 | 272 | 0.0 | 0.0 | 0.00 | 0.00 | 0.00 | 1015.0 | |
| 20260902155838 | 140 | 168 | 0.0 | 0.0 | 0.00 | 0.00 | 0.00 | 1015.0 | |
| 20260902155337 | 140 | 140 | 0.0 | 0.0 | 0.00 | 0.00 | 0.00 | 1015.0 | |
| 20260902154833 | 140 | 124 | 5.0 | 6.0 | 0.00 | 0.00 | 0.00 | 1015.1 | |
| 20260902154329 | 140 | 37 | 0.0 | 0.0 | 0.00 | 0.00 | 0.00 | 1014.9 | |
| 20260902153827 | 140 | 103 | 3.0 | 5.0 | 0.00 | 0.00 | 0.00 | 1015.0 | |
| 20260902153327 | 140 | 97 | 6.0 | 8.0 | 0.00 | 0.00 | 0.00 | 1015.0 | |
| 20260902152823 | 140 | 115 | 2.0 | 3.0 | 0.00 | 0.00 | 0.00 | 1015.2 | |
| 20260902152319 | 140 | 140 | 7.0 | 8.0 | 0.00 | 0.00 | 0.00 | 1015.1 | |
| 20260902151814 | 140 | 131 | 1.0 | 2.0 | 0.00 | 0.00 | 0.00 | 1015.1 | |
| 20260902151309 | 140 | 148 | 0.0 | 0.0 | 0.00 | 0.00 | 0.00 | 1015.0 | |
| 20260902150803 | 140 | 126 | 0.0 | 0.0 | 0.00 | 0.00 | 0.00 | 1015.2 | |
| 20260902150300 | 140 | 156 | 0.0 | 0.0 | 0.00 | 0.00 | 0.00 | 1015.1 | |
| 20260902145759 | 140 | 157 | 0.0 | 0.0 | 0.00 | 0.00 | 0.00 | 1015.2 | |
| 20260902145254 | 140 | 142 | 0.0 | 0.0 | 0.00 | 0.00 | 0.00 | 1015.1 | |
| 20260902144750 | 140 | 135 | 0.0 | 0.0 | 0.00 | 0.00 | 0.00 | 1015.3 | |
| 20260902144246 | 140 | 191 | 3.0 | 5.0 | 0.00 | 0.00 | 0.00 | 1015.0 | |
| 20260902143740 | 140 | 137 | 0.0 | 0.0 | 0.00 | 0.00 | 0.00 | 1015.2 | |
| 20260902143235 | 140 | 144 | 0.0 | 0.0 | 0.00 | 0.00 | 0.00 | 1015.0 | |
| 20260902142731 | 140 | 122 | 0.0 | 0.0 | 0.00 | 0.00 | 0.00 | 1015.3 | |
| 20260902142227 | 140 | 142 | 1.0 | 1.0 | 0.00 | 0.00 | 0.00 | 1015.2 | |
| 20260902141721 | 140 | 98 | 0.0 | 1.0 | 0.00 | 0.00 | 0.00 | 1014.8 | |
| 20260902141217 | 140 | 101 | 0.0 | 0.0 | 0.00 | 0.00 | 0.00 | 1014.9 | |
| 20260902140713 | 140 | 161 | 0.0 | 0.0 | 0.00 | 0.00 | 0.00 | 1015.3 | |
| 20260902140213 | 140 | 143 | 0.0 | 0.0 | 0.00 | 0.00 | 0.00 | 1015.1 | |
| 20260902135712 | 140 | 127 | 0.0 | 0.0 | 0.00 | 0.00 | 0.00 | 1015.1 | |
| 20260902135208 | 140 | 94 | 0.0 | 0.0 | 0.00 | 0.00 | 0.00 | 1015.4 | |
| 20260902134707 | 140 | 146 | 0.0 | 0.0 | 0.00 | 0.00 | 0.00 | 1014.9 | |
| 20260902134202 | 140 | 112 | 0.0 | 0.0 | 0.00 | 0.00 | 0.00 | 1015.2 | |
| 20260902133657 | 140 | 125 | 0.0 | 0.0 | 0.00 | 0.00 | 0.00 | 1015.1 | |
| 20260902133156 | 140 | 116 | 0.0 | 0.0 | 0.00 | 0.00 | 0.00 | 1015.3 | |
| 20260902132647 | 140 | 74 | 0.0 | 0.0 | 0.00 | 0.00 | 0.00 | 1015.2 | |
| 20260902132142 | 140 | 84 | 1.0 | 3.0 | 0.00 | 0.00 | 0.00 | 1015.3 | |
| 20260902131638 | 140 | 57 | 0.0 | 0.0 | 0.00 | 0.00 | 0.00 | 1015.4 | |
| 20260902131133 | 140 | 50 | 0.0 | 0.0 | 0.00 | 0.00 | 0.00 | 1015.3 | |
| 20260902130629 | 140 | 84 | 0.0 | 0.0 | 0.00 | 0.00 | 0.00 | 1015.1 | |
| 20260902130124 | 140 | 100 | 0.0 | 0.0 | 0.00 | 0.00 | 0.00 | 1015.1 | |
| 20260902125620 | 140 | 145 | 0.0 | 0.0 | 0.00 | 0.00 | 0.00 | 1015.3 | |
| 20260902125115 | 140 | 147 | 0.0 | 0.0 | 0.00 | 0.00 | 0.00 | 1015.2 | |
| 20260902124612 | 140 | 135 | 0.0 | 0.0 | 0.00 | 0.00 | 0.00 | 1015.4 | |
| 20260902124111 | 140 | 162 | 0.0 | 0.0 | 0.00 | 0.00 | 0.00 | 1015.2 | |
| 20260902123608 | 140 | 152 | 0.0 | 0.0 | 0.00 | 0.00 | 0.00 | 1014.6 | |
| 20260902123102 | 140 | 172 | 0.0 | 0.0 | 0.00 | 0.00 | 0.00 | 1015.0 | |
| 20260902122601 | 140 | 124 | 0.0 | 0.0 | 0.00 | 0.00 | 0.00 | 1015.0 | |
| 20260902122057 | 140 | 72 | 0.0 | 0.0 | 0.00 | 0.00 | 0.00 | 1014.7 | |
| 20260902121551 | 140 | 62 | 0.0 | 0.0 | 0.00 | 0.00 | 0.00 | 1015.0 | |
| 20260902121047 | 140 | 84 | 0.0 | 0.0 | 0.00 | 0.00 | 0.00 | 1014.8 | |
| 20260902120543 | 140 | 90 | 0.0 | 0.0 | 0.00 | 0.00 | 0.00 | 1015.0 | |
| 20260902120038 | 140 | 86 | 0.0 | 0.0 | 0.00 | 0.00 | 0.00 | 1014.7 | |
| 20260902115538 | 140 | 77 | 0.0 | 0.0 | 0.00 | 0.00 | 0.00 | 1014.6 | |
| 20260902115035 | 140 | 61 | 0.0 | 0.0 | 0.00 | 0.00 | 0.00 | 1014.8 | |
| 20260902114531 | 140 | 61 | 0.0 | 0.0 | 0.00 | 0.00 | 0.00 | 1014.9 | |
| 20260902114030 | 140 | 61 | 0.0 | 0.0 | 0.00 | 0.00 | 0.00 | 1014.7 | |
| 20260902113526 | 140 | 60 | 0.0 | 0.0 | 0.00 | 0.00 | 0.00 | 1014.9 | |
| 20260902113021 | 140 | 121 | 0.0 | 0.0 | 0.00 | 0.00 | 0.00 | 1014.7 | |
| 20260902112517 | 140 | 138 | 0.0 | 0.0 | 0.00 | 0.00 | 0.00 | 1014.7 | |
| 20260902112013 | 140 | 73 | 0.0 | 0.0 | 0.00 | 0.00 | 0.00 | 1014.6 | |
| 20260902111509 | 140 | 54 | 0.0 | 0.0 | 0.00 | 0.00 | 0.00 | 1014.8 | |
| 20260902111004 | 140 | 66 | 0.0 | 0.0 | 0.00 | 0.00 | 0.00 | 1014.5 | |
| 20260902110501 | 140 | 133 | 0.0 | 0.0 | 0.00 | 0.00 | 0.00 | 1014.6 | |
| 20260902105955 | 140 | 135 | 0.0 | 0.0 | 0.00 | 0.00 | 0.00 | 1014.5 | |
| 20260902105450 | 140 | 128 | 0.0 | 0.0 | 0.00 | 0.00 | 0.00 | 1014.5 | |
| 20260902104945 | 140 | 106 | 0.0 | 0.0 | 0.00 | 0.00 | 0.00 | 1014.4 | |
| 20260902104441 | 140 | 122 | 0.0 | 0.0 | 0.00 | 0.00 | 0.00 | 1014.5 | |
| 20260902103940 | 140 | 150 | 0.0 | 0.0 | 0.00 | 0.00 | 0.00 | 1014.5 | |
| 20260902103436 | 140 | 130 | 0.0 | 0.0 | 0.00 | 0.00 | 0.00 | 1014.6 | |
| 20260902102931 | 140 | 130 | 0.0 | 0.0 | 0.00 | 0.00 | 0.00 | 1014.5 | |
| 20260902102428 | 140 | 121 | 0.0 | 0.0 | 0.00 | 0.00 | 0.00 | 1014.5 | |
| 20260902101924 | 140 | 105 | 0.0 | 0.0 | 0.00 | 0.00 | 0.00 | 1014.6 | |
| 20260902101423 | 140 | 111 | 0.0 | 0.0 | 0.00 | 0.00 | 0.00 | 1014.5 | |
| 20260902100918 | 140 | 102 | 0.0 | 0.0 | 0.00 | 0.00 | 0.00 | 1014.6 | |
| 20260902100418 | 140 | 80 | 0.0 | 0.0 | 0.00 | 0.00 | 0.00 | 1014.6 | |
| 20260902095913 | 140 | 78 | 0.0 | 0.0 | 0.00 | 0.00 | 0.00 | 1014.7 | |
| 20260902095407 | 140 | 90 | 0.0 | 0.0 | 0.00 | 0.00 | 0.00 | 1014.6 | |
| 20260902094906 | 140 | 140 | 0.0 | 0.0 | 0.00 | 0.00 | 0.00 | 1014.6 | |
| 20260902094403 | 140 | 108 | 0.0 | 0.0 | 0.00 | 0.00 | 0.00 | 1014.7 | |
| 20260902093902 | 140 | 136 | 0.0 | 0.0 | 0.00 | 0.00 | 0.00 | 1014.5 | |
| 20260902093358 | 140 | 128 | 0.0 | 0.0 | 0.00 | 0.00 | 0.00 | 1014.6 | |
| 20260902092856 | 140 | 135 | 0.0 | 0.0 | 0.00 | 0.00 | 0.00 | 1014.4 | |
| 20260902092352 | 140 | 118 | 0.0 | 0.0 | 0.00 | 0.00 | 0.00 | 1014.6 | |
| 20260902091847 | 140 | 134 | 0.0 | 0.0 | 0.00 | 0.00 | 0.00 | 1014.6 | |
| 20260902091342 | 140 | 121 | 0.0 | 0.0 | 0.00 | 0.00 | 0.00 | 1014.4 | |
| 20260902090839 | 140 | 104 | 0.0 | 0.0 | 0.00 | 0.00 | 0.00 | 1014.5 | |
| 20260902090338 | 140 | 111 | 0.0 | 0.0 | 0.00 | 0.00 | 0.00 | 1014.6 | |
| 20260902085837 | 140 | 117 | 0.0 | 0.0 | 0.00 | 0.00 | 0.00 | 1014.5 | |
| 20260902085333 | 140 | 155 | 0.0 | 0.0 | 0.00 | 0.00 | 0.00 | 1014.6 | |
| 20260902084828 | 140 | 135 | 0.0 | 0.0 | 0.00 | 0.00 | 0.00 | 1014.5 | |
| 20260902084325 | 140 | 121 | 0.0 | 0.0 | 0.00 | 0.00 | 0.00 | 1014.6 | |
| 20260902083820 | 140 | 146 | 0.0 | 0.0 | 0.00 | 0.00 | 0.00 | 1014.7 | |
| 20260902083319 | 140 | 150 | 0.0 | 0.0 | 0.00 | 0.00 | 0.00 | 1014.7 | |
| 20260902082814 | 140 | 158 | 0.0 | 0.0 | 0.00 | 0.00 | 0.00 | 1014.6 | |
| 20260902082311 | 140 | 131 | 0.0 | 0.0 | 0.00 | 0.00 | 0.00 | 1014.5 | |
| 20260902081807 | 140 | 138 | 0.0 | 0.0 | 0.00 | 0.00 | 0.00 | 1014.6 | |
| 20260902081302 | 140 | 146 | 0.0 | 0.0 | 0.00 | 0.00 | 0.00 | 1014.5 | |
| 20260902080757 | 140 | 152 | 0.0 | 0.0 | 0.00 | 0.00 | 0.00 | 1014.6 | |
| 20260902080254 | 140 | 113 | 4.0 | 5.0 | 0.00 | 0.00 | 0.00 | 1014.9 | |
| 20260902075753 | 140 | 145 | 6.0 | 8.0 | 0.00 | 0.00 | 0.00 | 1014.7 | |
| 20260902075249 | 140 | 140 | 0.0 | 0.0 | 0.00 | 0.00 | 0.00 | 1014.5 | |
| 20260902074744 | 140 | 155 | 0.0 | 0.0 | 0.00 | 0.00 | 0.00 | 1014.7 | |
| 20260902074239 | 140 | 113 | 0.0 | 0.0 | 0.00 | 0.00 | 0.00 | 1014.6 | |
| 20260902073735 | 140 | 148 | 0.0 | 0.0 | 0.00 | 0.00 | 0.00 | 1014.8 | |
| 20260902073230 | 140 | 124 | 0.0 | 0.0 | 0.00 | 0.00 | 0.00 | 1014.6 | |
| 20260902072726 | 140 | 122 | 0.0 | 0.0 | 0.00 | 0.00 | 0.00 | 1014.4 | |
| 20260902072222 | 140 | 160 | 3.0 | 5.0 | 0.00 | 0.00 | 0.00 | 1014.5 | |
| 20260902071718 | 140 | 146 | 3.0 | 5.0 | 0.00 | 0.00 | 0.00 | 1014.7 | |
| 20260902071213 | 140 | 145 | 0.0 | 1.0 | 0.00 | 0.00 | 0.00 | 1014.7 | |
| 20260902070710 | 140 | 130 | 0.0 | 0.0 | 0.00 | 0.00 | 0.00 | 1014.6 | |
| 20260902070208 | 140 | 139 | 0.0 | 0.0 | 0.00 | 0.00 | 0.00 | 1014.7 | |
| 20260902065707 | 140 | 151 | 0.0 | 0.0 | 0.00 | 0.00 | 0.00 | 1014.8 | |
| 20260902065204 | 140 | 125 | 0.0 | 0.0 | 0.00 | 0.00 | 0.00 | 1014.8 | |
| 20260902064658 | 140 | 127 | 3.0 | 5.0 | 0.00 | 0.00 | 0.00 | 1015.1 | |
| 20260902064154 | 140 | 143 | 0.0 | 0.0 | 0.00 | 0.00 | 0.00 | 1014.6 | |
| 20260902063649 | 140 | 148 | 3.0 | 5.0 | 0.00 | 0.00 | 0.00 | 1014.5 | |
| 20260902063144 | 140 | 153 | 0.0 | 1.0 | 0.00 | 0.00 | 0.00 | 1014.5 | |
| 20260902062643 | 140 | 141 | 6.0 | 8.0 | 0.00 | 0.00 | 0.00 | 1014.6 | |
| 20260902062138 | 140 | 120 | 6.0 | 6.0 | 0.00 | 0.00 | 0.00 | 1014.4 | |
| 20260902061638 | 140 | 184 | 3.0 | 3.0 | 0.00 | 0.00 | 0.00 | 1014.5 | |
| 20260902061133 | 140 | 158 | 1.0 | 2.0 | 0.00 | 0.00 | 0.00 | 1014.5 | |
| 20260902060630 | 140 | 124 | 4.0 | 9.0 | 0.00 | 0.00 | 0.00 | 1014.1 | |
| 20260902060126 | 140 | 104 | 4.0 | 6.0 | 0.00 | 0.00 | 0.00 | 1014.1 | |
| 20260902055622 | 140 | 129 | 1.0 | 5.0 | 0.00 | 0.00 | 0.00 | 1014.5 | |
| 20260902055117 | 140 | 131 | 1.0 | 5.0 | 0.00 | 0.00 | 0.00 | 1014.4 | |
| 20260902054612 | 140 | 115 | 0.0 | 0.0 | 0.00 | 0.00 | 0.00 | 1014.2 | |
| 20260902054108 | 140 | 143 | 0.0 | 0.0 | 0.00 | 0.00 | 0.00 | 1014.2 | |
| 20260902053603 | 140 | 117 | 0.0 | 0.0 | 0.00 | 0.00 | 0.00 | 1014.1 | |
| 20260902053103 | 140 | 134 | 0.0 | 0.0 | 0.00 | 0.00 | 0.00 | 1014.1 | |
| 20260902052557 | 140 | 147 | 0.0 | 0.0 | 0.00 | 0.00 | 0.00 | 1013.9 | |
| 20260902052053 | 140 | 145 | 0.0 | 0.0 | 0.00 | 0.00 | 0.00 | 1013.8 | |
| 20260902051552 | 140 | 168 | 0.0 | 0.0 | 0.00 | 0.00 | 0.00 | 1013.6 | |
| 20260902051052 | 140 | 143 | 0.0 | 0.0 | 0.00 | 0.00 | 0.00 | 1013.6 | |
| 20260902050546 | 140 | 148 | 0.0 | 0.0 | 0.00 | 0.00 | 0.00 | 1013.6 | |
| 20260902050041 | 140 | 154 | 0.0 | 0.0 | 0.00 | 0.00 | 0.00 | 1013.8 | |
| 20260902045537 | 140 | 162 | 0.0 | 0.0 | 0.00 | 0.00 | 0.00 | 1013.7 | |
| 20260902045033 | 140 | 154 | 0.0 | 0.0 | 0.00 | 0.00 | 0.00 | 1013.8 | |
| 20260902044533 | 140 | 156 | 0.0 | 0.0 | 0.00 | 0.00 | 0.00 | 1013.6 | |
| 20260902044029 | 140 | 142 | 0.0 | 0.0 | 0.00 | 0.00 | 0.00 | 1013.7 | |
| 20260902043524 | 140 | 126 | 0.0 | 0.0 | 0.00 | 0.00 | 0.00 | 1013.8 | |
| 20260902043019 | 140 | 103 | 0.0 | 0.0 | 0.00 | 0.00 | 0.00 | 1013.9 | |
| 20260902042518 | 140 | 111 | 0.0 | 0.0 | 0.00 | 0.00 | 0.00 | 1013.9 | |
| 20260902042014 | 140 | 117 | 0.0 | 0.0 | 0.00 | 0.00 | 0.00 | 1013.8 | |
| 20260902041508 | 140 | 102 | 0.0 | 0.0 | 0.00 | 0.00 | 0.00 | 1013.8 | |
| 20260902041002 | 140 | 117 | 0.0 | 0.0 | 0.00 | 0.00 | 0.00 | 1013.6 | |
| 20260902040457 | 140 | 111 | 0.0 | 0.0 | 0.00 | 0.00 | 0.00 | 1013.5 | |
| 20260902035956 | 140 | 88 | 0.0 | 0.0 | 0.00 | 0.00 | 0.00 | 1013.9 | |
| 20260902035451 | 140 | 114 | 0.0 | 0.0 | 0.00 | 0.00 | 0.00 | 1013.7 | |
| 20260902034950 | 140 | 137 | 0.0 | 0.0 | 0.00 | 0.00 | 0.00 | 1013.6 | |
| 20260902034445 | 140 | 106 | 0.0 | 0.0 | 0.00 | 0.00 | 0.00 | 1013.3 | |
| 20260902033945 | 140 | 109 | 0.0 | 0.0 | 0.00 | 0.00 | 0.00 | 1013.7 | |
| 20260902033444 | 140 | 112 | 0.0 | 0.0 | 0.00 | 0.00 | 0.00 | 1013.6 | |
| 20260902032943 | 140 | 101 | 0.0 | 0.0 | 0.00 | 0.00 | 0.00 | 1013.6 | |
| 20260902032438 | 140 | 105 | 4.0 | 6.0 | 0.00 | 0.00 | 0.00 | 1013.6 | |
| 20260902031933 | 140 | 121 | 0.0 | 0.0 | 0.00 | 0.00 | 0.00 | 1013.4 | |
| 20260902031428 | 140 | 103 | 0.0 | 0.0 | 0.00 | 0.00 | 0.00 | 1013.4 | |
| 20260902030925 | 140 | 106 | 0.0 | 0.0 | 0.00 | 0.00 | 0.00 | 1013.5 | |
| 20260902030424 | 140 | 103 | 0.0 | 0.0 | 0.00 | 0.00 | 0.00 | 1013.4 | |
| 20260902025923 | 140 | 99 | 0.0 | 0.0 | 0.00 | 0.00 | 0.00 | 1012.9 | |
| 20260902025419 | 140 | 94 | 0.0 | 0.0 | 0.00 | 0.00 | 0.00 | 1013.1 | |
| 20260902024914 | 140 | 106 | 0.0 | 0.0 | 0.00 | 0.00 | 0.00 | 1012.9 | |
| 20260902024409 | 140 | 104 | 0.0 | 0.0 | 0.00 | 0.00 | 0.00 | 1012.9 | |
| 20260902023904 | 140 | 80 | 0.0 | 0.0 | 0.00 | 0.00 | 0.00 | 1012.6 | |
| 20260902023400 | 140 | 104 | 0.0 | 0.0 | 0.00 | 0.00 | 0.00 | 1012.7 | |
| 20260902022859 | 140 | 120 | 0.0 | 2.0 | 0.00 | 0.00 | 0.00 | 1012.6 | |
| 20260902022354 | 140 | 134 | 0.0 | 0.0 | 0.00 | 0.00 | 0.00 | 1012.8 | |
| 20260902021850 | 140 | 100 | 0.0 | 0.0 | 0.00 | 0.00 | 0.00 | 1012.5 | |
| 20260902021350 | 140 | 109 | 0.0 | 0.0 | 0.00 | 0.00 | 0.00 | 1012.5 | |
| 20260902020846 | 140 | 107 | 0.0 | 0.0 | 0.00 | 0.00 | 0.00 | 1012.5 | |
| 20260902020342 | 140 | 104 | 0.0 | 0.0 | 0.00 | 0.00 | 0.00 | 1012.3 | |
| 20260902015837 | 140 | 103 | 0.0 | 0.0 | 0.00 | 0.00 | 0.00 | 1012.3 | |
| 20260902015332 | 140 | 145 | 0.0 | 0.0 | 0.00 | 0.00 | 0.00 | 1012.4 | |
| 20260902014828 | 140 | 110 | 0.0 | 0.0 | 0.00 | 0.00 | 0.00 | 1011.9 | |
| 20260902014325 | 140 | 104 | 0.0 | 0.0 | 0.00 | 0.00 | 0.00 | 1012.1 | |
| 20260902013823 | 140 | 108 | 0.0 | 0.0 | 0.00 | 0.00 | 0.00 | 1012.0 | |
| 20260902013319 | 140 | 116 | 0.0 | 0.0 | 0.00 | 0.00 | 0.00 | 1012.1 | |
| 20260902012814 | 140 | 109 | 0.0 | 0.0 | 0.00 | 0.00 | 0.00 | 1011.9 | |
| 20260902012310 | 140 | 114 | 0.0 | 0.0 | 0.00 | 0.00 | 0.00 | 1012.0 | |
| 20260902011805 | 140 | 97 | 0.0 | 0.0 | 0.00 | 0.00 | 0.00 | 1011.7 | |
| 20260902011300 | 140 | 99 | 2.0 | 5.0 | 0.00 | 0.00 | 0.00 | 1011.8 | |
| 20260902010759 | 140 | 98 | 6.0 | 8.0 | 0.00 | 0.00 | 0.00 | 1011.8 | |
| 20260902010255 | 140 | 91 | 1.0 | 3.0 | 0.00 | 0.00 | 0.00 | 1011.6 | |
| 20260902005753 | 140 | 91 | 0.0 | 0.0 | 0.00 | 0.00 | 0.00 | 1011.5 | |
| 20260902005249 | 140 | 96 | 2.0 | 6.0 | 0.00 | 0.00 | 0.00 | 1011.6 | |
| 20260902004748 | 140 | 83 | 8.0 | 9.0 | 0.00 | 0.00 | 0.00 | 1011.7 | |
| 20260902004244 | 140 | 114 | 7.0 | 10.0 | 0.00 | 0.00 | 0.00 | 1011.6 | |
| 20260902003733 | 140 | 84 | 9.0 | 11.0 | 0.00 | 0.00 | 0.00 | 1011.7 | |
| 20260902003229 | 140 | 72 | 9.0 | 10.0 | 0.00 | 0.00 | 0.00 | 1011.7 | |
| 20260902002724 | 140 | 90 | 9.0 | 13.0 | 0.00 | 0.00 | 0.00 | 1011.7 | |
| 20260902002224 | 140 | 81 | 11.0 | 13.0 | 0.00 | 0.00 | 0.00 | 1011.8 | |
| 20260902001720 | 140 | 84 | 0.0 | 1.0 | 0.00 | 0.00 | 0.00 | 1011.7 | |
| 20260902001219 | 140 | 77 | 6.0 | 8.0 | 0.00 | 0.00 | 0.00 | 1011.9 | |
| 20260902000714 | 140 | 89 | 10.0 | 14.0 | 0.00 | 0.00 | 0.00 | 1011.7 | |
| 20260902000211 | 140 | 100 | 5.0 | 8.0 | 0.00 | 0.00 | 0.00 | 1011.7 | |
| 20260901235708 | 140 | 82 | 7.0 | 10.0 | 0.00 | 0.00 | 0.00 | 1011.8 | |
| 20260901235204 | 140 | 103 | 8.0 | 8.0 | 0.00 | 0.00 | 0.00 | 1011.9 | |
| 20260901234658 | 140 | 86 | 7.0 | 10.0 | 0.00 | 0.00 | 0.00 | 1012.0 | |
| 20260901234153 | 140 | 165 | 0.0 | 0.0 | 0.00 | 0.00 | 0.00 | 1011.9 | |
| 20260901233647 | 140 | 95 | 8.0 | 9.0 | 0.00 | 0.00 | 0.00 | 1012.0 | |
| 20260901233143 | 140 | 115 | 8.0 | 10.0 | 0.00 | 0.00 | 0.00 | 1011.8 | |
| 20260901232638 | 140 | 106 | 6.0 | 7.0 | 0.00 | 0.00 | 0.00 | 1011.8 | |
| 20260901232133 | 140 | 96 | 11.0 | 13.0 | 0.00 | 0.00 | 0.00 | 1011.8 | |
| 20260901231629 | 140 | 64 | 3.0 | 6.0 | 0.00 | 0.00 | 0.00 | 1011.8 | |
| 20260901231126 | 140 | 101 | 9.0 | 10.0 | 0.00 | 0.00 | 0.00 | 1012.0 | |
| 20260901230622 | 140 | 107 | 9.0 | 10.0 | 0.00 | 0.00 | 0.00 | 1011.8 | |
| 20260901230121 | 140 | 86 | 10.0 | 11.0 | 0.00 | 0.00 | 0.00 | 1012.0 | |
| 20260901225616 | 140 | 91 | 6.0 | 9.0 | 0.00 | 0.00 | 0.00 | 1011.8 | |
| 20260901225116 | 140 | 103 | 13.0 | 16.0 | 0.00 | 0.00 | 0.00 | 1011.9 | |
| 20260901224612 | 140 | 87 | 3.0 | 6.0 | 0.00 | 0.00 | 0.00 | 1011.8 | |
| 20260901224108 | 140 | 97 | 11.0 | 14.0 | 0.00 | 0.00 | 0.00 | 1012.0 | |
| 20260901223603 | 140 | 118 | 3.0 | 6.0 | 0.00 | 0.00 | 0.00 | 1011.9 | |
| 20260901223058 | 140 | 110 | 5.0 | 8.0 | 0.00 | 0.00 | 0.00 | 1011.8 | |
| 20260901222555 | 140 | 81 | 11.0 | 13.0 | 0.00 | 0.00 | 0.00 | 1012.3 | |
| 20260901222050 | 140 | 78 | 5.0 | 8.0 | 0.00 | 0.00 | 0.00 | 1011.9 | |
| 20260901221546 | 140 | 87 | 5.0 | 7.0 | 0.00 | 0.00 | 0.00 | 1011.8 | |
| 20260901221041 | 140 | 61 | 0.0 | 0.0 | 0.00 | 0.00 | 0.00 | 1011.9 | |
| 20260901220541 | 140 | 91 | 11.0 | 11.0 | 0.00 | 0.00 | 0.00 | 1011.8 | |
| 20260901220040 | 140 | 57 | 4.0 | 6.0 | 0.00 | 0.00 | 0.00 | 1011.8 | |
| 20260901215538 | 140 | 60 | 3.0 | 7.0 | 0.00 | 0.00 | 0.00 | 1012.0 | |
| 20260901215032 | 140 | 64 | 1.0 | 2.0 | 0.00 | 0.00 | 0.00 | 1012.2 | |
| 20260901214532 | 140 | 55 | 0.0 | 0.0 | 0.00 | 0.00 | 0.00 | 1012.1 | |
| 20260901214031 | 140 | 63 | 3.0 | 7.0 | 0.00 | 0.00 | 0.00 | 1012.2 | |
| 20260901213526 | 140 | 99 | 10.0 | 11.0 | 0.00 | 0.00 | 0.00 | 1012.0 | |
| 20260901213025 | 140 | 117 | 8.0 | 11.0 | 0.00 | 0.00 | 0.00 | 1012.1 | |
| 20260901212520 | 140 | 87 | 3.0 | 10.0 | 0.00 | 0.00 | 0.00 | 1012.0 | |
| 20260901212017 | 140 | 56 | 8.0 | 15.0 | 0.00 | 0.00 | 0.00 | 1012.0 | |
| 20260901211512 | 140 | 8 | 0.0 | 0.0 | 0.00 | 0.00 | 0.00 | 1012.2 | |
| 20260901211008 | 140 | 97 | 0.0 | 1.0 | 0.00 | 0.00 | 0.00 | 1012.3 | |
| 20260901210504 | 140 | 71 | 7.0 | 8.0 | 0.00 | 0.00 | 0.00 | 1012.6 | |
| 20260901205959 | 140 | 63 | 0.0 | 1.0 | 0.00 | 0.00 | 0.00 | 1012.6 | |
| 20260901205454 | 140 | 95 | 8.0 | 8.0 | 0.00 | 0.00 | 0.00 | 1012.6 | |
| 20260901204949 | 140 | 87 | 1.0 | 3.0 | 0.00 | 0.00 | 0.00 | 1012.7 | |
| 20260901204446 | 140 | 107 | 8.0 | 9.0 | 0.00 | 0.00 | 0.00 | 1012.6 | |
| 20260901203944 | 140 | 105 | 8.0 | 13.0 | 0.00 | 0.00 | 0.00 | 1012.6 | |
| 20260901203440 | 140 | 78 | 6.0 | 8.0 | 0.00 | 0.00 | 0.00 | 1012.7 |